Overview Statistics Trail Chart Weather Telemetry Raw packets
 

This is the latest recevied weather packets stored in our database for station/object MB7UUE. If no packets are shown the sender has not sent any weather packets the latest 10 day(s).

<< 38 39 40 41 42 43 44 >>
Time Temp. Humidity Pressure Rain* Wind** Luminosity Snow
1787943971 20.56° C 66% 1006.4 hPa 0 mm - - -
1787943957 20.56° C 66% 1006.4 hPa 0 mm - - -
1787942826 21.11° C 66% 1006.1 hPa 0 mm - - -
1787942816 21.11° C 66% 1006.1 hPa 0 mm - - -
1787941685 21.11° C 66% 1006.1 hPa 0 mm - - -
1787941677 21.11° C 66% 1006.1 hPa 0 mm - - -
1787940546 21.11° C 66% 1006.1 hPa 0 mm - - -
1787940538 21.11° C 66% 1006.1 hPa 0 mm - - -
1787939405 21.11° C 66% 1005.7 hPa 0 mm - - -
1787939397 21.11° C 66% 1005.7 hPa 0 mm - - -
1787938267 21.11° C 65% 1005.6 hPa 0 mm - - -
1787938257 21.11° C 65% 1005.6 hPa 0 mm - - -
1787937127 21.67° C 63% 1005.7 hPa 0 mm - - -
1787937117 21.67° C 63% 1005.7 hPa 0 mm - - -
1787935985 22.22° C 60% 1005.5 hPa 0 mm - - -
1787935977 22.22° C 60% 1005.5 hPa 0 mm - - -
1787934846 22.22° C 60% 1005.5 hPa 0 mm - - -
1787934841 22.22° C 60% 1005.6 hPa 0 mm - - -
1787933706 21.67° C 64% 1005.5 hPa 0 mm - - -
1787933698 21.67° C 64% 1005.5 hPa 0 mm - - -
1787932567 22.22° C 61% 1005.6 hPa 0 mm - - -
1787932557 22.22° C 60% 1005.6 hPa 0 mm - - -
1787931426 22.22° C 61% 1005.6 hPa 0 mm - - -
1787931418 22.22° C 61% 1005.6 hPa 0 mm - - -
1787930286 22.22° C 58% 1005.5 hPa 0 mm - - -

* Rain latest hour (hover to see other rain measurements)
** Current wind speed in m/s (hover to see current wind gust speed)